Zurück zum Katalog

INTELSAT 26

JCSAT 4

AktivKommunikationGEO
NORAD 24732·PAYLOAD· XX

Gestartet Feb 17, 1997 von Cape Canaveral Space Force Station

Loading…

TLE

AktuellSource: Space-Track

Epoche: Sep 14, 2026, 12:13 UTC

1 24732U 97007A   26257.50926863 -.00000061  00000-0  00000-0 0  9990
2 24732  12.4154  28.8409 0009648 275.7739 259.4350  0.98907463107939

Verfolge INTELSAT 26 in Echtzeit mit AllMySat

Download on the App Store